QPF
0.00 0.00 0.00 0.00 0.00 0.00 0.00 0.00 0.00 0.00 0.00 0.00 0.00 0.02 0.02 0.00 0.00 0.00 0.00 0.00 0.00 0.00 0.00 0.01 0.07 0.01 0.01 0.03 0.03 0.02 0.02 0.03 0.01 0.01 0.01 0.02 0.00 0.00 0.00 0.00 0.00 0.01 0.02 0.01 0.00 0.00 0.01 0.02 0.01
0.00 0.00 0.00 0.00 0.00 0.00 0.01 0.00 0.00 0.00 0.00 0.00 0.00 0.00 0.00 0.00 0.00 0.00 0.00 0.00 0.00 0.00 0.00 0.00 0.03 0.02 0.01 0.01 0.05 0.03 0.03 0.00 0.00 0.01 0.02 0.04 0.02 0.01 0.01 0.01 0.01 0.00 0.00 0.00 0.00 0.01 0.00 0.01 0.00
0.00 0.00 0.00 0.00 0.00 0.01 0.01 0.00 0.00 0.00 0.00 0.00 0.00 0.00 0.00 0.00 0.00 0.00 0.00 0.00 0.00 0.00 0.00 0.00 0.00 0.00 0.00 0.01 0.05 0.07 0.01 0.01 0.02 0.02 0.01 0.01 0.01 0.01 0.01 0.00 0.00 0.00 0.00 0.00 0.00 0.04 0.02 0.04 0.00
0.00 0.00 0.00 0.00 0.02 0.01 0.00 0.00 0.00 0.00 0.00 0.00 0.00 0.00 0.00 0.00 0.01 0.00 0.00 0.00 0.00 0.00 0.00 0.00 0.00 0.02 0.02 0.01 0.04 0.04 0.01 0.01 0.03 0.02 0.01 0.02 0.04 0.01 0.00 0.00 0.00 0.00 0.00 0.00 0.00 0.02 0.06 0.07 0.07
0.01 0.00 0.00 0.02 0.04 0.00 0.00 0.00 0.00 0.00 0.00 0.00 0.00 0.00 0.00 0.00 0.00 0.00 0.00 0.00 0.00 0.00 0.00 0.00 0.01 0.03 0.00 0.00 0.02 0.02 0.02 0.03 0.04 0.09 0.06 0.02 0.01 0.00 0.00 0.00 0.00 0.00 0.00 0.00 0.00 0.00 0.01 0.03 0.04
0.01 0.00 0.00 0.02 0.02 0.03 0.00 0.00 0.00 0.00 0.00 0.00 0.00 0.00 0.00 0.00 0.00 0.00 0.02 0.00 0.00 0.00 0.00 0.00 0.01 0.01 0.00 0.02 0.01 0.01 0.00 0.02 0.11 0.04 0.01 0.00 0.00 0.00 0.00 0.00 0.00 0.00 0.00 0.00 0.00 0.00 0.00 0.00 0.03
0.01 0.00 0.00 0.01 0.05 0.10 0.00 0.00 0.00 0.01 0.00 0.00 0.00 0.00 0.00 0.02 0.03 0.01 0.03 0.00 0.00 0.00 0.00 0.00 0.00 0.00 0.01 0.01 0.03 0.00 0.00 0.07 0.08 0.01 0.03 0.04 0.03 0.00 0.00 0.00 0.00 0.00 0.00 0.00 0.00 0.00 0.00 0.00 0.03
0.05 0.02 0.02 0.02 0.04 0.03 0.01 0.00 0.00 0.00 0.00 0.00 0.00 0.00 0.00 0.00 0.04 0.01 0.02 0.01 0.00 0.00 0.00 0.00 0.00 0.00 0.01 0.00 0.01 0.00 0.05 0.06 0.03 0.00 0.07 0.06 0.01 0.00 0.00 0.00 0.00 0.00 0.00 0.00 0.00 0.00 0.00 0.00 0.00
0.11 0.11 0.03 0.00 0.03 0.09 0.04 0.00 0.00 0.00 0.00 0.00 0.00 0.00 0.00 0.00 0.01 0.00 0.01 0.01 0.00 0.00 0.01 0.02 0.03 0.00 0.00 0.04 0.03 0.08 0.09 0.06 0.09 0.01 0.00 0.00 0.01 0.01 0.00 0.00 0.00 0.00 0.00 0.00 0.00 0.00 0.00 0.00 0.00
0.05 0.03 0.02 0.00 0.04 0.08 0.06 0.00 0.00 0.00 0.00 0.00 0.00 0.00 0.00 0.01 0.01 0.00 0.00 0.00 0.02 0.00 0.00 0.00 0.00 0.00 0.01 0.02 0.04 0.13 0.12 0.13 0.07 0.00 0.00 0.00 0.00 0.00 0.00 0.01 0.00 0.00 0.00 0.00 0.00 0.01 0.01 0.00 0.00
0.04 0.03 0.06 0.04 0.03 0.10 0.12 0.02 0.00 0.00 0.00 0.00 0.00 0.00 0.00 0.02 0.07 0.01 0.00 0.03 0.01 0.01 0.00 0.00 0.00 0.00 0.03 0.03 0.02 0.01 0.00 0.01 0.00 0.00 0.00 0.00 0.00 0.00 0.02 0.02 0.02 0.01 0.00 0.00 0.00 0.00 0.00 0.00 0.00
0.03 0.03 0.06 0.11 0.05 0.08 0.13 0.03 0.00 0.00 0.00 0.00 0.00 0.00 0.00 0.00 0.01 0.00 0.00 0.00 0.02 0.02 0.02 0.00 0.00 0.00 0.01 0.01 0.00 0.00 0.00 0.00 0.00 0.00 0.00 0.00 0.00 0.00 0.00 0.00 0.01 0.00 0.00 0.00 0.00 0.00 0.00 0.00 0.00
0.01 0.03 0.08 0.11 0.03 0.04 0.03 0.04 0.04 0.02 0.00 0.00 0.00 0.00 0.00 0.00 0.00 0.01 0.00 0.01 0.01 0.00 0.00 0.00 0.00 0.00 0.00 0.00 0.00 0.01 0.00 0.00 0.00 0.00 0.00 0.00 0.00 0.00 0.01 0.00 0.00 0.00 0.00 0.00 0.00 0.00 0.00 0.00 0.00
0.02 0.04 0.08 0.08 0.12 0.07 0.01 0.00 0.02 0.01 0.00 0.00 0.00 0.00 0.00 0.00 0.00 0.00 0.00 0.00 0.00 0.00 0.00 0.00 0.00 0.00 0.01 0.01 0.00 0.00 0.00 0.00 0.00 0.00 0.00 0.00 0.00 0.00 0.00 0.00 0.00 0.00 0.00 0.00 0.00 0.00 0.00 0.00 0.00
0.02 0.02 0.10 0.01 0.06 0.03 0.01 0.00 0.00 0.01 0.00 0.00 0.00 0.00 0.00 0.00 0.00 0.00 0.00 0.00 0.00 0.00 0.00 0.00 0.00 0.00 0.01 0.01 0.00 0.00 0.00 0.00 0.00 0.00 0.00 0.00 0.00 0.00 0.00 0.00 0.00 0.00 0.00 0.00 0.00 0.00 0.00 0.00 0.00
0.00 0.01 0.08 0.02 0.01 0.02 0.01 0.00 0.02 0.00 0.00 0.00 0.00 0.00 0.00 0.00 0.00 0.00 0.00 0.00 0.00 0.00 0.00 0.00 0.00 0.01 0.00 0.00 0.00 0.00 0.00 0.00 0.00 0.00 0.00 0.01 0.01 0.06 0.04 0.00 0.00 0.00 0.00 0.00 0.00 0.00 0.00 0.00 0.00
0.00 0.00 0.04 0.04 0.02 0.02 0.01 0.01 0.04 0.02 0.00 0.00 0.00 0.00 0.00 0.00 0.00 0.00 0.00 0.00 0.00 0.00 0.00 0.00 0.00 0.01 0.00 0.00 0.00 0.01 0.00 0.00 0.00 0.00 0.00 0.02 0.01 0.05 0.02 0.02 0.00 0.00 0.00 0.00 0.00 0.00 0.00 0.00 0.00
0.00 0.00 0.01 0.03 0.01 0.02 0.02 0.03 0.02 0.03 0.03 0.01 0.00 0.00 0.00 0.00 0.00 0.00 0.00 0.00 0.00 0.00 0.00 0.00 0.00 0.00 0.00 0.00 0.00 0.00 0.00 0.00 0.00 0.00 0.00 0.00 0.00 0.00 0.00 0.00 0.00 0.00 0.00 0.00 0.00 0.00 0.00 0.00 0.00
0.00 0.00 0.01 0.00 0.00 0.00 0.00 0.02 0.03 0.02 0.04 0.01 0.00 0.00 0.00 0.00 0.00 0.00 0.00 0.00 0.00 0.00 0.00 0.00 0.00 0.00 0.00 0.00 0.00 0.00 0.00 0.00 0.00 0.00 0.00 0.00 0.00 0.00 0.00 0.00 0.00 0.00 0.00 0.00 0.00 0.01 0.00 0.00 0.00
0.00 0.02 0.05 0.03 0.00 0.00 0.00 0.00 0.00 0.01 0.02 0.01 0.00 0.00 0.00 0.00 0.00 0.00 0.00 0.00 0.00 0.00 0.00 0.00 0.00 0.00 0.00 0.00 0.00 0.00 0.00 0.01 0.00 0.01 0.01 0.00 0.01 0.00 0.00 0.00 0.00 0.00 0.00 0.00 0.01 0.00 0.00 0.00 0.00
0.00 0.00 0.03 0.08 0.01 0.01 0.00 0.00 0.00 0.01 0.01 0.00 0.01 0.00 0.00 0.00 0.00 0.00 0.00 0.00 0.00 0.00 0.00 0.00 0.00 0.00 0.00 0.00 0.00 0.00 0.00 0.00 0.01 0.01 0.02 0.00 0.01 0.01 0.01 0.01 0.00 0.00 0.00 0.00 0.00 0.00 0.00 0.00 0.00
0.00 0.00 0.01 0.06 0.04 0.03 0.00 0.00 0.00 0.00 0.01 0.00 0.01 0.00 0.00 0.00 0.00 0.00 0.00 0.00 0.00 0.00 0.00 0.00 0.00 0.00 0.00 0.00 0.00 0.00 0.01 0.02 0.01 0.00 0.00 0.01 0.02 0.01 0.03 0.01 0.00 0.00 0.00 0.00 0.00 0.00 0.00 0.00 0.00
0.00 0.01 0.03 0.06 0.06 0.01 0.00 0.00 0.00 0.00 0.00 0.00 0.00 0.00 0.00 0.00 0.00 0.00 0.00 0.00 0.00 0.00 0.00 0.00 0.00 0.00 0.00 0.00 0.00 0.00 0.00 0.00 0.00 0.02 0.01 0.02 0.04 0.01 0.02 0.01 0.00 0.00 0.00 0.00 0.00 0.00 0.00 0.00 0.00
0.00 0.01 0.04 0.03 0.02 0.00 0.00 0.01 0.00 0.00 0.00 0.00 0.00 0.00 0.00 0.00 0.00 0.00 0.00 0.00 0.00 0.00 0.00 0.00 0.00 0.00 0.00 0.00 0.00 0.00 0.00 0.00 0.01 0.02 0.00 0.00 0.01 0.01 0.01 0.01 0.00 0.00 0.00 0.00 0.00 0.01 0.00 0.00 0.00
0.00 0.00 0.00 0.01 0.01 0.01 0.01 0.01 0.00 0.00 0.00 0.00 0.00 0.00 0.02 0.00 0.00 0.00 0.00 0.00 0.00 0.00 0.00 0.00 0.00 0.00 0.00 0.00 0.00 0.00 0.00 0.00 0.01 0.04 0.04 0.05 0.01 0.00 0.00 0.00 0.00 0.00 0.00 0.00 0.00 0.00 0.00 0.00 0.00
0.00 0.00 0.00 0.00 0.01 0.01 0.00 0.00 0.00 0.00 0.00 0.00 0.00 0.00 0.03 0.00 0.00 0.00 0.00 0.00 0.00 0.00 0.00 0.00 0.00 0.00 0.00 0.00 0.00 0.00 0.00 0.00 0.00 0.00 0.02 0.00 0.00 0.00 0.00 0.00 0.00 0.00 0.00 0.00 0.00 0.00 0.00 0.00 0.00
0.00 0.00 0.00 0.00 0.00 0.00 0.00 0.00 0.00 0.00 0.00 0.00 0.00 0.00 0.01 0.00 0.00 0.00 0.00 0.00 0.00 0.00 0.00 0.00 0.00 0.00 0.00 0.00 0.00 0.00 0.00 0.00 0.00 0.00 0.00 0.01 0.02 0.00 0.00 0.00 0.00 0.00 0.00 0.00 0.01 0.00 0.00 0.00 0.00
0.00 0.00 0.00 0.00 0.00 0.00 0.00 0.00 0.00 0.00 0.00 0.00 0.00 0.00 0.00 0.00 0.00 0.01 0.01 0.00 0.00 0.00 0.00 0.00 0.00 0.00 0.00 0.00 0.00 0.00 0.00 0.00 0.00 0.00 0.00 0.00 0.03 0.01 0.01 0.01 0.02 0.01 0.00 0.00 0.00 0.00 0.00 0.00 0.00
0.00 0.00 0.00 0.00 0.00 0.00 0.00 0.00 0.00 0.00 0.00 0.00 0.00 0.00 0.00 0.00 0.00 0.00 0.00 0.00 0.00 0.00 0.00 0.00 0.00 0.00 0.00 0.00 0.00 0.00 0.00 0.00 0.00 0.00 0.02 0.05 0.01 0.00 0.00 0.01 0.00 0.00 0.00 0.00 0.00 0.00 0.00 0.00 0.00
0.00 0.00 0.00 0.00 0.00 0.00 0.00 0.00 0.00 0.00 0.00 0.00 0.00 0.00 0.00 0.01 0.00 0.00 0.00 0.01 0.00 0.00 0.00 0.00 0.00 0.00 0.00 0.00 0.00 0.00 0.00 0.00 0.00 0.00 0.01 0.05 0.01 0.00 0.00 0.00 0.00 0.00 0.00 0.00 0.00 0.00 0.00 0.01 0.00
MSLP
1009.93 1010.17 1010.37 1010.74 1011.14 1010.47 1009.59 1008.89 1008.43 1008.60 1009.04 1008.95 1010.03 1010.37 1011.51 1011.97 1012.58 1013.88 1013.49 1014.01 1014.31 1014.73 1014.78 1014.95 1014.90 1015.11 1015.33 1015.43 1015.59 1015.60 1015.75 1015.67 1015.82 1015.92 1015.99 1016.16 1016.28 1016.33 1016.34 1016.34 1016.33 1016.42 1016.61 1016.61 1016.59 1016.69 1016.85 1017.01 1016.97
1009.81 1010.13 1010.10 1010.35 1010.72 1010.20 1009.57 1008.60 1008.37 1008.36 1008.46 1008.89 1009.75 1010.34 1011.22 1012.51 1012.87 1013.41 1013.98 1014.23 1014.35 1014.80 1015.01 1015.17 1015.32 1015.36 1015.59 1015.75 1015.83 1015.84 1015.88 1016.02 1016.16 1016.31 1016.45 1016.50 1016.55 1016.68 1016.61 1016.62 1016.71 1016.74 1016.79 1016.96 1016.98 1017.05 1017.22 1017.29 1017.27
1009.77 1009.75 1010.26 1010.71 1010.61 1010.03 1009.41 1008.89 1008.25 1008.54 1008.59 1009.09 1010.09 1010.61 1011.83 1013.02 1013.42 1013.63 1013.75 1014.25 1014.61 1015.03 1015.30 1015.47 1015.55 1015.65 1015.75 1015.91 1016.13 1016.17 1016.25 1016.44 1016.57 1016.62 1016.82 1016.74 1016.92 1016.96 1016.98 1016.95 1017.01 1017.07 1017.09 1017.36 1017.45 1017.43 1017.54 1017.48 1017.57
1009.65 1010.28 1010.77 1010.92 1010.56 1009.53 1008.93 1008.68 1008.40 1008.36 1009.04 1009.43 1010.37 1011.57 1012.47 1013.12 1013.38 1013.71 1014.13 1014.34 1014.97 1015.21 1015.45 1015.56 1015.77 1015.88 1015.97 1016.07 1016.29 1016.33 1016.47 1016.67 1016.87 1016.98 1017.00 1017.00 1017.06 1017.11 1017.17 1017.20 1017.26 1017.48 1017.65 1017.71 1017.78 1017.82 1017.81 1017.83 1017.87
1010.02 1010.95 1011.71 1011.55 1010.76 1009.64 1009.11 1009.05 1008.65 1008.75 1009.31 1010.06 1010.69 1012.46 1013.10 1013.69 1013.53 1014.17 1014.63 1014.95 1015.15 1015.56 1015.66 1015.75 1015.90 1016.09 1016.14 1016.25 1016.33 1016.51 1016.67 1016.90 1017.03 1017.13 1017.32 1017.31 1017.34 1017.39 1017.35 1017.47 1017.57 1017.86 1018.10 1018.13 1018.15 1018.23 1018.25 1018.22 1018.18
1010.73 1011.87 1012.31 1011.91 1011.06 1010.19 1009.52 1009.36 1009.32 1009.48 1010.01 1010.81 1011.69 1012.60 1014.04 1014.18 1014.18 1014.96 1015.14 1015.30 1015.48 1015.86 1015.89 1015.93 1016.03 1016.09 1016.21 1016.37 1016.58 1016.69 1016.91 1017.08 1017.16 1017.36 1017.51 1017.61 1017.68 1017.71 1017.77 1017.87 1017.90 1018.13 1018.35 1018.36 1018.42 1018.55 1018.67 1018.67 1018.53
1010.69 1011.72 1012.28 1012.05 1011.33 1010.51 1009.92 1009.57 1009.96 1010.41 1010.36 1010.95 1011.44 1013.09 1014.57 1014.89 1014.95 1015.39 1015.69 1015.83 1015.86 1016.04 1016.16 1016.09 1016.11 1016.15 1016.37 1016.54 1016.80 1016.92 1017.13 1017.37 1017.57 1017.70 1017.79 1017.91 1018.02 1018.05 1018.05 1018.12 1018.22 1018.28 1018.42 1018.51 1018.67 1018.83 1018.97 1019.01 1018.97
1010.31 1011.22 1012.04 1012.06 1011.73 1011.21 1010.41 1009.96 1009.49 1010.14 1010.70 1011.00 1011.56 1013.16 1014.32 1014.83 1015.39 1015.81 1016.11 1016.37 1016.46 1016.45 1016.30 1016.30 1016.48 1016.56 1016.71 1016.81 1016.95 1017.15 1017.33 1017.57 1017.68 1017.88 1017.99 1018.05 1018.05 1018.17 1018.31 1018.47 1018.49 1018.49 1018.56 1018.66 1018.84 1019.03 1019.17 1019.20 1019.22
1010.37 1011.21 1011.91 1011.93 1011.72 1011.32 1010.59 1010.08 1010.02 1009.99 1010.72 1011.16 1011.27 1012.26 1013.61 1014.86 1015.51 1016.03 1016.57 1016.93 1016.86 1016.93 1016.73 1016.55 1016.80 1016.97 1017.16 1017.13 1017.26 1017.41 1017.72 1017.79 1017.90 1018.06 1018.25 1018.48 1018.66 1018.77 1018.86 1018.69 1018.63 1018.69 1018.76 1018.91 1018.99 1019.12 1019.28 1019.35 1019.50
1010.50 1011.01 1011.04 1011.51 1011.56 1011.57 1011.00 1010.22 1010.10 1010.63 1011.17 1011.53 1012.01 1012.95 1013.92 1015.03 1015.47 1016.01 1016.56 1017.00 1017.13 1017.07 1016.93 1017.03 1017.05 1017.30 1017.41 1017.39 1017.80 1017.93 1018.09 1018.14 1018.15 1018.57 1018.87 1019.03 1019.28 1019.27 1019.15 1018.88 1018.70 1018.72 1018.81 1018.92 1018.99 1019.10 1019.23 1019.46 1019.73
1009.97 1010.05 1010.38 1011.11 1011.57 1011.77 1011.06 1010.61 1010.58 1010.89 1011.41 1011.41 1012.08 1013.20 1014.33 1015.18 1015.70 1015.96 1016.48 1016.73 1016.81 1016.87 1017.16 1017.32 1017.34 1017.57 1017.69 1017.71 1018.14 1018.32 1018.50 1018.51 1018.81 1019.03 1019.11 1019.33 1019.37 1019.30 1019.24 1019.35 1019.10 1018.97 1018.91 1019.19 1019.32 1019.44 1019.50 1019.61 1019.73
1009.60 1009.58 1010.20 1010.38 1011.33 1011.83 1011.67 1011.20 1011.10 1011.26 1011.31 1011.41 1012.06 1012.83 1013.99 1014.92 1015.44 1015.75 1016.24 1016.70 1016.97 1017.07 1017.31 1017.45 1017.55 1017.74 1017.84 1018.09 1018.16 1018.46 1018.91 1019.12 1019.26 1019.32 1019.42 1019.54 1019.47 1019.44 1019.44 1019.51 1019.45 1019.36 1019.63 1019.73 1019.63 1019.47 1019.31 1019.36 1019.40
1009.47 1009.86 1010.42 1010.75 1011.18 1011.89 1011.91 1011.92 1012.24 1011.76 1011.54 1012.02 1012.52 1013.11 1013.68 1014.59 1015.36 1015.77 1015.90 1016.55 1016.94 1017.17 1017.35 1017.52 1017.49 1017.65 1017.90 1018.16 1018.43 1018.82 1019.03 1019.23 1019.44 1019.49 1019.56 1019.59 1019.51 1019.54 1019.63 1019.96 1019.96 1019.86 1019.72 1019.77 1019.63 1019.48 1019.33 1019.41 1019.23
1009.67 1010.35 1011.17 1011.63 1012.09 1012.24 1012.39 1013.12 1012.68 1011.81 1011.87 1012.11 1012.75 1013.19 1013.71 1014.28 1015.04 1015.60 1015.91 1016.42 1016.71 1017.03 1017.25 1017.33 1017.51 1017.62 1017.81 1018.25 1018.62 1018.93 1019.02 1019.22 1019.52 1019.58 1019.71 1019.65 1019.55 1019.63 1019.64 1019.93 1019.95 1019.97 1019.92 1019.79 1019.57 1019.48 1019.39 1019.29 1019.09
1010.04 1011.10 1011.56 1012.39 1012.75 1012.95 1012.67 1013.44 1012.96 1012.14 1012.14 1012.05 1012.62 1013.27 1013.73 1014.16 1014.71 1015.03 1015.46 1016.07 1016.50 1016.81 1017.13 1017.09 1017.35 1017.54 1017.79 1018.16 1018.74 1019.06 1019.14 1019.36 1019.65 1019.61 1019.68 1019.64 1019.54 1019.64 1019.82 1019.99 1019.91 1019.85 1019.89 1019.63 1019.45 1019.23 1019.17 1019.37 1019.31
1010.65 1011.15 1012.24 1013.15 1013.01 1013.25 1013.25 1013.31 1013.20 1013.04 1011.81 1012.21 1012.55 1013.20 1013.61 1013.96 1014.22 1014.87 1015.33 1015.80 1016.22 1016.58 1016.99 1017.02 1017.36 1017.63 1017.96 1018.13 1018.61 1019.07 1019.15 1019.36 1019.55 1019.56 1019.51 1019.52 1019.66 1019.75 1019.88 1019.99 1019.85 1019.69 1019.78 1019.72 1019.53 1019.48 1019.38 1019.48 1019.66
1011.83 1012.07 1012.60 1013.47 1013.72 1013.51 1013.47 1013.60 1013.63 1012.89 1012.06 1012.11 1012.36 1012.85 1013.41 1014.02 1014.61 1014.85 1015.12 1015.69 1016.11 1016.25 1016.75 1017.09 1017.23 1017.66 1018.09 1018.41 1018.62 1018.95 1019.07 1019.29 1019.34 1019.37 1019.49 1019.56 1019.59 1019.71 1019.80 1020.13 1019.97 1019.97 1019.99 1019.71 1019.63 1019.73 1019.63 1019.74 1019.80
1011.98 1012.41 1012.88 1013.72 1013.94 1014.05 1014.19 1014.42 1014.08 1013.48 1013.15 1012.74 1012.74 1012.80 1013.26 1013.91 1014.09 1014.39 1015.04 1015.59 1016.10 1016.30 1016.81 1017.10 1017.37 1017.68 1018.12 1018.40 1018.73 1019.07 1019.29 1019.30 1019.43 1019.47 1019.61 1019.46 1019.70 1019.65 1019.79 1020.13 1020.27 1020.32 1020.37 1020.15 1019.91 1020.08 1020.04 1019.94 1019.97
1011.20 1011.95 1012.72 1013.88 1014.24 1014.21 1014.47 1014.53 1014.26 1014.38 1014.14 1013.19 1013.19 1012.95 1013.23 1013.57 1013.93 1014.37 1014.95 1015.61 1016.25 1016.49 1016.82 1017.20 1017.62 1017.90 1018.30 1018.82 1019.31 1019.54 1019.55 1019.52 1019.48 1019.39 1019.53 1019.69 1019.31 1019.35 1019.67 1019.98 1020.32 1020.49 1020.59 1020.34 1020.15 1020.16 1020.45 1020.51 1020.25
1010.98 1011.85 1012.94 1013.86 1014.50 1014.72 1014.97 1014.91 1014.50 1014.67 1014.30 1013.59 1013.53 1012.98 1012.87 1013.48 1014.15 1014.74 1015.21 1015.47 1015.91 1016.25 1016.63 1017.19 1017.46 1018.06 1018.38 1018.60 1018.85 1019.08 1019.39 1019.67 1019.57 1019.42 1019.79 1019.43 1019.34 1019.45 1019.80 1020.12 1020.62 1020.63 1020.41 1020.31 1020.25 1020.33 1020.64 1020.74 1020.63
1010.86 1011.51 1012.27 1013.43 1014.49 1014.81 1014.93 1015.17 1015.01 1014.77 1014.59 1013.97 1013.55 1013.20 1012.80 1012.91 1013.71 1014.48 1015.17 1015.39 1015.87 1016.27 1016.53 1016.96 1017.34 1017.62 1017.95 1018.31 1018.69 1019.20 1019.50 1019.61 1019.73 1019.69 1019.74 1019.74 1019.41 1019.50 1019.77 1020.34 1020.62 1020.66 1020.58 1020.36 1020.36 1020.42 1020.52 1020.87 1021.07
1010.91 1010.94 1011.98 1012.77 1013.82 1014.78 1014.91 1014.84 1014.35 1014.31 1014.03 1013.89 1013.52 1013.17 1012.79 1013.08 1013.41 1013.97 1014.75 1015.41 1015.56 1015.97 1016.52 1016.83 1017.18 1017.59 1017.90 1018.21 1018.66 1019.03 1019.50 1019.87 1019.87 1019.74 1019.82 1019.77 1019.62 1019.81 1020.16 1020.29 1020.45 1020.58 1020.61 1020.57 1020.47 1020.36 1020.51 1020.86 1021.11
1010.51 1011.04 1012.14 1012.79 1013.73 1014.41 1014.85 1015.04 1013.45 1013.70 1013.66 1013.02 1012.99 1013.09 1012.78 1012.69 1013.43 1013.73 1014.18 1014.69 1015.08 1015.75 1016.12 1016.61 1017.12 1017.47 1017.71 1018.03 1018.40 1018.96 1019.56 1019.79 1019.74 1019.81 1020.04 1020.17 1020.01 1019.90 1020.01 1020.18 1020.30 1020.42 1020.55 1020.37 1020.45 1020.47 1020.66 1020.91 1021.08
1010.21 1011.64 1012.77 1013.39 1013.79 1014.62 1014.19 1014.31 1012.98 1012.66 1011.87 1012.34 1012.50 1012.59 1012.71 1012.47 1013.19 1013.63 1013.85 1014.52 1015.05 1015.70 1016.10 1016.55 1017.05 1017.25 1017.51 1017.98 1018.41 1018.79 1019.30 1019.75 1020.05 1020.09 1020.16 1020.08 1020.19 1020.01 1019.91 1020.14 1020.35 1020.49 1020.50 1020.44 1020.43 1020.45 1020.79 1021.03 1021.05
1010.19 1011.80 1012.91 1013.83 1014.56 1014.40 1013.69 1013.69 1011.60 1010.54 1010.50 1010.69 1011.53 1011.87 1012.31 1012.34 1012.78 1013.63 1014.03 1014.50 1015.06 1015.38 1015.89 1016.49 1017.08 1017.31 1017.48 1017.79 1018.20 1018.54 1018.86 1019.27 1019.67 1019.99 1020.02 1020.11 1020.13 1020.07 1019.91 1020.08 1020.57 1020.49 1020.29 1020.26 1020.42 1020.63 1020.57 1020.85 1021.06
1009.92 1010.85 1011.69 1013.09 1013.91 1013.64 1013.48 1012.07 1009.44 1008.24 1008.68 1008.70 1009.59 1010.41 1011.79 1012.14 1012.15 1012.98 1013.52 1013.91 1014.49 1014.92 1015.61 1016.08 1016.72 1017.17 1017.41 1017.49 1017.80 1018.19 1018.50 1018.91 1019.10 1019.37 1019.57 1019.60 1019.69 1019.67 1019.46 1019.71 1020.12 1020.19 1020.13 1020.17 1020.42 1020.63 1020.40 1020.52 1020.82
1009.55 1010.33 1010.51 1012.16 1013.31 1013.38 1012.38 1010.71 1008.61 1007.85 1008.24 1008.81 1008.73 1009.48 1010.58 1011.62 1011.74 1012.29 1013.06 1013.52 1013.99 1014.69 1015.07 1015.58 1016.16 1016.70 1017.23 1017.43 1017.52 1017.91 1018.25 1018.55 1018.79 1018.98 1019.31 1019.52 1019.41 1019.31 1019.24 1019.32 1019.62 1019.89 1020.11 1020.24 1020.34 1020.56 1020.47 1020.61 1020.71
1007.74 1008.76 1010.53 1011.74 1012.81 1013.15 1011.96 1010.90 1009.06 1008.17 1008.65 1008.67 1008.45 1008.62 1009.19 1010.70 1011.48 1011.89 1012.45 1013.06 1013.46 1013.93 1014.61 1015.31 1015.76 1015.95 1016.51 1017.09 1017.32 1017.60 1017.97 1018.21 1018.48 1018.83 1018.97 1019.15 1019.28 1019.15 1019.26 1019.37 1019.56 1019.66 1019.78 1020.07 1020.31 1020.53 1020.44 1020.49 1020.66
1008.00 1008.77 1009.95 1011.04 1012.05 1012.49 1011.95 1010.39 1008.23 1007.86 1007.99 1008.12 1008.23 1008.43 1008.70 1009.61 1010.65 1011.69 1012.32 1012.82 1013.23 1013.78 1014.29 1014.79 1015.43 1015.77 1016.15 1016.79 1017.08 1017.39 1017.77 1018.14 1018.29 1018.43 1018.69 1018.90 1018.95 1018.97 1019.05 1019.11 1019.30 1019.47 1019.62 1019.67 1020.11 1020.31 1020.49 1020.57 1020.65
1007.63 1008.85 1009.65 1011.08 1012.15 1012.27 1011.54 1009.97 1009.05 1008.10 1007.85 1007.95 1008.25 1008.54 1008.73 1009.16 1010.09 1011.42 1011.99 1012.40 1012.94 1013.55 1014.05 1014.29 1014.92 1015.41 1015.56 1016.03 1016.82 1017.08 1017.57 1017.95 1018.11 1018.18 1018.27 1018.53 1018.73 1018.65 1018.91 1019.03 1019.24 1019.30 1019.45 1019.58 1019.83 1020.03 1020.15 1020.33 1020.51
Thickness
5788 5787 5785 5774 5753 5751 5750 5760 5776 5765 5760 5778 5773 5765 5753 5754 5748 5722 5756 5754 5752 5746 5743 5742 5742 5742 5740 5740 5740 5742 5741 5744 5745 5745 5745 5744 5744 5743 5744 5745 5746 5746 5746 5747 5750 5750 5749 5749 5750
5792 5788 5783 5768 5745 5740 5742 5770 5763 5773 5778 5782 5775 5770 5758 5742 5756 5752 5749 5754 5753 5746 5743 5741 5740 5741 5739 5738 5738 5741 5742 5742 5742 5742 5742 5742 5743 5743 5745 5745 5745 5747 5748 5747 5748 5748 5747 5748 5750
5793 5791 5766 5752 5745 5739 5744 5767 5771 5777 5786 5780 5767 5772 5758 5743 5752 5754 5758 5755 5752 5746 5742 5740 5739 5738 5739 5739 5738 5738 5739 5739 5739 5739 5740 5742 5741 5742 5743 5744 5746 5747 5749 5747 5746 5748 5748 5748 5749
5788 5775 5766 5745 5745 5762 5768 5771 5779 5780 5779 5781 5770 5750 5759 5760 5757 5758 5758 5755 5751 5746 5742 5740 5739 5738 5738 5738 5737 5737 5738 5737 5736 5737 5738 5740 5741 5742 5744 5745 5745 5745 5744 5744 5746 5747 5747 5748 5748
5783 5764 5740 5736 5749 5764 5776 5776 5780 5774 5772 5768 5769 5745 5745 5755 5763 5758 5754 5751 5749 5744 5742 5741 5740 5738 5737 5737 5737 5737 5736 5736 5736 5736 5736 5739 5741 5742 5746 5745 5745 5744 5742 5743 5744 5745 5746 5747 5748
5764 5754 5730 5734 5746 5761 5772 5776 5777 5770 5768 5763 5754 5749 5741 5757 5757 5752 5752 5749 5745 5743 5740 5740 5740 5740 5738 5736 5735 5735 5735 5735 5736 5736 5735 5736 5738 5740 5742 5743 5744 5744 5743 5744 5745 5745 5745 5746 5748
5760 5746 5733 5737 5742 5753 5761 5778 5764 5761 5764 5761 5768 5740 5740 5748 5753 5750 5748 5746 5743 5741 5740 5741 5742 5741 5739 5736 5733 5732 5732 5733 5732 5733 5735 5736 5737 5739 5741 5742 5743 5744 5744 5744 5745 5746 5745 5746 5747
5769 5755 5742 5742 5738 5738 5764 5772 5780 5773 5761 5778 5773 5739 5736 5749 5750 5747 5746 5742 5740 5740 5742 5743 5741 5738 5737 5735 5733 5730 5729 5730 5733 5734 5734 5736 5738 5739 5739 5740 5742 5743 5744 5744 5744 5745 5746 5747 5748
5776 5743 5733 5736 5737 5747 5766 5768 5780 5788 5772 5772 5778 5766 5760 5755 5751 5745 5740 5737 5738 5738 5741 5742 5740 5737 5735 5733 5731 5728 5727 5728 5731 5733 5733 5734 5736 5737 5738 5741 5743 5744 5744 5744 5745 5746 5746 5747 5748
5761 5742 5748 5757 5755 5746 5759 5773 5773 5770 5764 5763 5765 5766 5761 5754 5751 5743 5738 5735 5736 5739 5742 5741 5739 5735 5734 5732 5729 5727 5728 5730 5733 5732 5732 5733 5734 5736 5738 5741 5744 5745 5746 5747 5749 5749 5749 5749 5749
5765 5757 5769 5759 5760 5761 5761 5770 5778 5767 5756 5767 5759 5757 5753 5749 5745 5744 5740 5741 5742 5744 5742 5739 5738 5735 5732 5732 5729 5728 5729 5731 5730 5731 5733 5735 5737 5739 5741 5742 5746 5747 5749 5749 5751 5752 5752 5752 5752
5760 5779 5773 5772 5766 5761 5758 5769 5764 5768 5768 5778 5773 5769 5756 5750 5747 5746 5744 5744 5744 5743 5742 5740 5737 5736 5735 5734 5732 5730 5729 5729 5729 5732 5733 5735 5738 5741 5742 5744 5746 5748 5748 5749 5753 5756 5757 5756 5757
5763 5772 5771 5770 5768 5763 5763 5755 5752 5759 5775 5776 5772 5767 5761 5756 5751 5750 5753 5748 5745 5743 5742 5740 5740 5741 5738 5738 5734 5732 5731 5732 5732 5733 5735 5737 5741 5743 5743 5743 5745 5747 5749 5751 5754 5757 5759 5759 5761
5769 5765 5761 5759 5754 5756 5752 5743 5751 5766 5773 5771 5768 5765 5762 5760 5754 5752 5754 5749 5748 5746 5745 5746 5746 5745 5743 5741 5738 5737 5737 5737 5736 5737 5738 5740 5742 5743 5743 5743 5745 5746 5749 5753 5757 5760 5761 5763 5766
5765 5749 5754 5750 5748 5743 5754 5734 5737 5760 5769 5766 5767 5764 5762 5761 5759 5758 5757 5752 5752 5750 5748 5750 5750 5748 5747 5745 5741 5739 5740 5739 5738 5740 5741 5744 5745 5745 5744 5745 5747 5747 5749 5753 5758 5762 5764 5765 5766
5751 5751 5732 5738 5744 5743 5742 5726 5738 5752 5768 5762 5766 5762 5761 5760 5764 5762 5760 5758 5757 5754 5752 5754 5755 5751 5748 5749 5745 5742 5743 5743 5743 5743 5745 5747 5747 5746 5746 5747 5748 5750 5751 5754 5758 5763 5765 5767 5767
5725 5718 5726 5726 5736 5737 5739 5728 5734 5753 5767 5762 5765 5765 5761 5760 5760 5763 5765 5763 5760 5760 5757 5756 5758 5754 5751 5748 5747 5746 5746 5745 5747 5749 5750 5749 5750 5751 5751 5748 5749 5750 5753 5757 5761 5764 5767 5767 5769
5713 5718 5726 5716 5725 5727 5728 5723 5731 5741 5748 5755 5761 5766 5763 5758 5761 5768 5768 5766 5761 5763 5761 5759 5759 5758 5755 5753 5750 5749 5748 5748 5750 5753 5751 5753 5752 5753 5754 5752 5750 5751 5753 5757 5761 5763 5768 5770 5771
5730 5728 5720 5721 5722 5720 5720 5725 5732 5730 5736 5747 5753 5762 5762 5759 5765 5770 5769 5767 5761 5763 5762 5761 5756 5757 5756 5753 5748 5747 5748 5751 5754 5755 5754 5753 5757 5758 5758 5758 5754 5753 5754 5758 5764 5766 5764 5765 5770
5729 5721 5715 5720 5718 5715 5712 5714 5727 5731 5735 5745 5747 5760 5766 5764 5761 5762 5764 5767 5764 5763 5764 5762 5761 5758 5758 5757 5756 5753 5752 5752 5755 5755 5755 5759 5761 5760 5760 5758 5755 5754 5759 5761 5763 5764 5763 5766 5769
5724 5719 5718 5714 5712 5714 5709 5703 5710 5723 5732 5740 5749 5755 5768 5768 5762 5760 5761 5766 5765 5763 5765 5764 5762 5761 5764 5762 5760 5754 5752 5753 5754 5757 5758 5757 5761 5763 5762 5758 5757 5756 5760 5763 5764 5766 5766 5763 5766
5706 5736 5726 5720 5707 5695 5709 5691 5707 5715 5724 5733 5742 5750 5765 5765 5765 5765 5763 5762 5768 5767 5767 5766 5766 5762 5764 5763 5760 5759 5753 5749 5754 5757 5759 5760 5761 5761 5759 5759 5759 5759 5761 5762 5763 5766 5767 5766 5764
5721 5733 5724 5721 5704 5703 5697 5692 5718 5715 5713 5732 5741 5747 5759 5768 5764 5764 5766 5768 5772 5771 5770 5769 5767 5766 5766 5765 5763 5760 5756 5755 5758 5759 5758 5758 5759 5760 5760 5761 5762 5762 5762 5763 5764 5764 5764 5765 5765
5734 5716 5710 5707 5701 5677 5702 5697 5712 5712 5728 5733 5741 5749 5754 5764 5763 5763 5770 5769 5769 5771 5770 5769 5767 5768 5768 5766 5764 5762 5759 5756 5754 5756 5756 5758 5759 5761 5762 5761 5762 5762 5762 5764 5765 5766 5765 5764 5766
5722 5702 5677 5679 5675 5673 5700 5695 5717 5738 5742 5746 5741 5751 5754 5762 5763 5760 5763 5766 5766 5769 5769 5769 5767 5766 5768 5767 5766 5764 5763 5760 5758 5756 5758 5758 5759 5761 5764 5762 5760 5762 5763 5765 5765 5766 5768 5767 5766
5717 5712 5695 5673 5675 5693 5700 5699 5728 5761 5764 5765 5762 5762 5753 5757 5768 5763 5764 5769 5768 5770 5769 5770 5768 5767 5768 5769 5769 5768 5767 5763 5763 5762 5761 5762 5762 5764 5767 5765 5762 5763 5765 5767 5765 5766 5770 5769 5768
5720 5710 5726 5694 5690 5686 5703 5724 5751 5760 5760 5757 5763 5762 5757 5758 5766 5766 5766 5769 5771 5770 5771 5772 5769 5768 5766 5768 5769 5768 5768 5766 5764 5765 5764 5763 5765 5766 5768 5769 5767 5766 5765 5766 5767 5766 5767 5767 5768
5735 5737 5701 5696 5681 5678 5701 5707 5721 5749 5748 5752 5758 5760 5763 5759 5760 5765 5768 5769 5771 5775 5774 5773 5771 5771 5771 5769 5769 5769 5769 5769 5766 5765 5765 5765 5766 5767 5768 5769 5769 5768 5767 5765 5765 5766 5769 5769 5768
5725 5718 5708 5706 5695 5685 5694 5710 5748 5756 5757 5756 5758 5760 5763 5762 5764 5764 5764 5769 5769 5771 5773 5774 5771 5771 5771 5769 5771 5769 5767 5767 5768 5767 5766 5764 5766 5767 5768 5769 5770 5770 5770 5768 5765 5765 5766 5767 5768
5738 5727 5715 5695 5704 5693 5709 5720 5751 5759 5761 5763 5758 5756 5760 5765 5766 5762 5763 5766 5766 5767 5769 5777 5773 5771 5775 5775 5771 5769 5767 5765 5766 5768 5769 5768 5766 5767 5769 5769 5769 5769 5769 5769 5768 5767 5767 5766 5765